This demonstration page uses our WeatherBlox Daily Observations layout. Learn more.

Left ArrowRight Arrow

38.20091, -84.87328

Hourly Observations for April 29, 2020

Temp ( °F °C ) Dew Point ( °F °C ) Humidity (%) Winds ( mph kmh ) Pressure ( in mb ) Visibility ( mi km ) Precip ( " mm )
12:53 am 00:53 Clear 65 18.3 44 6.7 47 47 SSW 7 11 29.80 1009 10 16 0.00 0.00
1:53 am 01:53 Cloudy 65 18.3 46 7.8 51 51 S 8 13 29.77 1008 10 16 0.00 0.00
2:53 am 02:53 Mostly Cloudy 65 18.3 47 8.3 52 52 S 8 13 29.73 1007 10 16 0.00 0.00
3:53 am 03:53 Cloudy 66 18.9 47 8.3 50 50 S 8 13 29.72 1007 10 16 0.00 0.00
4:53 am 04:53 Cloudy 64 17.8 51 10.6 63 63 S 16 26 29.70 1006 10 16 0.01 0.25
5:53 am 05:53 Cloudy 65 18.3 51 10.6 61 61 S 25 41 29.67 1005 10 16 0.01 0.25
6:53 am 06:53 Cloudy 62 16.7 51 10.6 67 67 S 16 26 29.65 1004 10 16 0.00 0.00
7:53 am 07:53 Cloudy 63 17.2 50 10 63 63 S 16 26 29.64 1004 10 16 0.01 0.25
8:53 am 08:53 Cloudy 65 18.3 50 10 59 59 S 15 24 29.57 1001 10 16 0.00 0.00
9:53 am 09:53 Partly Cloudy 70 21.1 49 9.4 47 47 S 18 30 29.55 1001 10 16 0.00 0.00
10:53 am 10:53 Cloudy 69 20.6 52 11.1 55 55 SSW 28 44 29.59 1002 10 16 0.00 0.00
11:53 am 11:53 Cloudy 68 20 54 12.2 61 61 SSW 17 28 29.60 1003 10 16 0.00 0.00
12:53 pm 12:53 Cloudy 66 18.9 53 11.7 63 63 W 26 43 29.62 1003 10 16 0.00 0.00
1:02 pm 13:02 Cloudy with Light Rain 60 15.6 51 10.6 72 72 WNW 13 20 29.65 1004 10 16 0.00 0.00
1:53 pm 13:53 Cloudy 58 14.4 51 10.6 78 78 W 10 17 29.66 1005 10 16 0.02 0.51
2:53 pm 14:53 Cloudy 57 13.9 50 10 78 78 WSW 5 7 29.66 1004 10 16 0.00 0.00
3:53 pm 15:53 Cloudy 57 13.9 50 10 78 78 S 9 15 29.67 1005 10 16 0.00 0.00
4:53 pm 16:53 Cloudy 57 13.9 49 9.4 74 74 SSE 8 13 29.65 1004 10 16 0.00 0.00
5:53 pm 17:53 Cloudy 56 13.3 50 10 81 81 S 10 17 29.66 1005 10 16 0.00 0.00
6:53 pm 18:53 Mostly Sunny 56 13.3 49 9.4 77 77 S 9 15 29.67 1005 10 16 0.00 0.00
7:53 pm 19:53 Cloudy 55 12.8 49 9.4 80 80 S 9 15 29.68 1005 10 16 0.00 0.00
8:53 pm 20:53 Mostly Cloudy 54 12.2 49 9.4 83 83 S 10 17 29.69 1005 10 16 0.00 0.00
9:53 pm 21:53 Clear 53 11.7 49 9.4 86 86 S 8 13 29.67 1005 10 16 0.00 0.00
10:53 pm 22:53 Mostly Cloudy 53 11.7 48 8.9 83 83 S 12 19 29.70 1006 10 16 0.00 0.00
11:28 pm 23:28 Mostly Cloudy 53 11.7 48 8.9 83 83 S 10 17 29.71 1006 10 16 0.00 0.00
11:49 pm 23:49 Partly Cloudy 52 11 48 9 88 88 SSW 9 15 29.69 1005 10 16 0.00 0.00
11:53 pm 23:53 Mostly Clear 52 11.1 48 8.9 86 86 SSW 9 15 29.67 1005 10 16 0.00 0.00

Powered by AerisWeather